Date,TemperatureHighF,TemperatureAvgF,TemperatureLowF,DewpointHighF,DewpointAvgF,DewpointLowF,HumidityHigh,HumidityAvg,HumidityLow,PressureMaxIn,PressureMinIn,WindSpeedMaxMPH,WindSpeedAvgMPH,GustSpeedMaxMPH,PrecipitationSumIn
2013-1-1,59.0,48.0,38.0,28.0,23.8,18.0,61,40,25,30.29,30.17,10,3,13,0.00
2013-1-2,60.0,51.4,44.0,28.0,18.9,16.0,46,28,18,30.20,30.05,12,6,17,0.00
2013-1-3,63.0,52.6,40.0,22.0,17.2,12.0,47,26,14,30.21,30.06,12,6,22,0.00
2013-1-4,64.0,52.6,41.0,24.0,18.5,12.0,46,27,18,30.32,30.20,8,3,11,0.00
2013-1-5,64.0,49.9,38.0,25.0,20.0,16.0,52,32,17,30.35,30.20,7,3,10,0.00
2013-1-6,68.0,52.4,39.0,37.0,27.9,20.0,55,39,22,30.20,29.98,10,3,15,0.00
2013-1-7,64.0,55.5,45.0,42.0,32.6,24.0,65,44,23,30.03,29.92,13,5,21,0.00
2013-1-8,72.0,57.6,41.0,32.0,27.4,20.0,57,34,17,30.09,29.93,13,4,18,0.00
2013-1-9,73.0,59.5,48.0,39.0,31.8,29.0,53,37,21,30.16,29.97,8,2,16,0.00
2013-1-10,69.0,55.7,48.0,50.0,35.0,26.0,60,46,31,30.00,29.83,16,5,33,0.00
2013-1-11,61.0,49.5,38.0,33.0,24.9,17.0,61,40,19,30.16,30.00,10,3,17,0.00
2013-1-12,57.0,45.5,36.0,28.0,22.5,16.0,65,43,20,30.17,30.03,9,2,13,0.00
2013-1-13,56.0,44.6,36.0,18.0,12.0,8.0,46,28,15,30.20,30.07,8,3,12,0.00
2013-1-14,49.0,43.4,37.0,14.0,5.4,0.0,37,21,14,30.35,30.13,16,8,23,0.00
2013-1-15,52.0,44.3,40.0,19.0,10.4,2.0,36,25,19,30.44,30.32,12,5,18,0.00
2013-1-16,61.0,50.1,37.0,28.0,20.7,15.0,43,32,22,30.43,30.24,12,5,19,0.00
2013-1-17,69.0,57.3,45.0,27.0,22.8,20.0,43,27,18,30.28,30.15,13,6,22,0.00
2013-1-18,72.0,60.2,51.0,26.0,21.8,18.0,34,23,16,30.21,30.10,13,5,21,0.00
2013-1-19,73.0,59.3,44.0,27.0,23.1,21.0,42,26,16,30.24,30.11,13,4,18,0.00
2013-1-20,73.0,59.2,45.0,29.0,21.5,19.0,50,25,13,30.16,30.03,11,4,15,0.00
2013-1-21,74.0,60.7,46.0,26.0,17.1,14.0,43,20,11,30.12,30.03,12,5,19,0.00
2013-1-22,77.0,62.1,46.0,31.0,19.2,12.0,37,20,11,30.14,30.04,8,3,11,0.00
2013-1-23,79.0,64.4,51.0,38.0,27.4,20.0,37,26,16,30.12,30.01,7,2,11,0.00
2013-1-24,73.0,65.2,60.0,49.0,44.3,32.0,60,47,31,30.19,30.07,6,2,9,0.00
2013-1-25,72.0,63.5,58.0,58.0,52.6,46.0,94,69,46,30.14,29.97,8,4,13,0.53
2013-1-26,59.0,58.9,58.0,58.0,57.3,56.0,95,94,94,29.97,29.90,2,1,4,0.75
2013-2-4,77.0,69.7,56.0,43.0,39.1,36.0,57,34,25,30.04,29.91,9,4,14,0.00
2013-2-5,81.0,63.5,49.0,45.0,40.4,35.0,72,47,20,30.01,29.86,5,1,8,0.00
2013-2-6,80.0,64.1,51.0,50.0,44.4,41.0,76,52,26,30.01,29.86,6,1,10,0.00
2013-2-7,79.0,61.5,47.0,51.0,42.4,34.0,89,55,20,30.07,29.89,6,2,10,0.00
2013-2-8,67.0,57.9,51.0,44.0,36.6,31.0,68,47,26,29.95,29.83,13,6,19,0.01
2013-2-9,65.0,52.8,41.0,38.0,34.2,31.0,76,52,29,30.06,29.87,13,4,24,0.01
2013-2-10,66.0,52.0,39.0,37.0,33.4,30.0,76,52,28,30.06,29.96,7,2,15,0.00
2013-2-11,61.0,50.6,41.0,39.0,30.3,21.0,78,50,23,30.20,30.00,11,3,18,0.00
2013-2-12,63.0,50.0,35.0,27.0,19.8,11.0,66,36,13,30.33,30.20,11,4,17,0.00
2013-2-13,68.0,51.4,39.0,32.0,26.3,22.0,55,40,20,30.24,30.10,7,1,10,0.00
2013-2-14,75.0,58.3,41.0,34.0,30.4,28.0,65,38,19,30.20,30.03,13,3,19,0.00
2013-2-15,77.0,65.4,55.0,31.0,26.8,23.0,40,24,15,30.24,30.11,11,6,18,0.00
2013-2-16,80.0,65.4,53.0,28.0,24.3,19.0,35,23,11,30.20,29.95,8,4,11,0.00
2013-2-17,80.0,60.4,42.0,39.0,30.2,24.0,65,36,13,29.95,29.82,8,2,14,0.00
2013-2-18,78.0,59.6,43.0,40.0,33.7,29.0,64,41,20,30.01,29.85,6,1,8,0.00
2013-2-19,70.0,57.6,45.0,44.0,38.2,35.0,86,52,29,29.87,29.72,10,4,15,0.00
2013-2-20,62.0,54.0,47.0,43.0,34.7,26.0,79,50,26,29.93,29.65,12,5,21,0.01
2013-2-21,69.0,53.8,40.0,42.0,35.0,30.0,75,52,26,30.06,29.93,8,2,12,0.01
2013-2-22,70.0,55.0,42.0,41.0,31.5,20.0,84,48,17,30.19,30.06,9,2,15,0.00
2013-2-23,75.0,56.8,39.0,32.0,28.7,23.0,68,39,15,30.14,29.80,9,2,14,0.00
2013-2-24,65.0,57.1,48.0,33.0,14.1,7.0,56,20,10,30.16,29.88,20,8,27,0.00
2013-2-25,70.0,54.5,38.0,26.0,18.4,12.0,49,27,11,30.24,30.02,9,2,11,0.00
2013-2-26,72.0,56.7,41.0,26.0,19.6,12.0,51,27,11,30.12,29.98,12,5,19,0.00
2013-2-27,70.0,59.7,51.0,17.0,12.8,5.0,24,16,8,30.27,30.12,14,7,24,0.00
2013-2-28,76.0,61.3,46.0,23.0,12.8,4.0,31,16,7,30.33,30.23,11,4,17,0.00
2013-3-1,82.0,63.5,43.0,37.0,25.8,21.0,50,27,11,30.33,30.17,7,2,10,0.00
2013-3-2,88.0,67.6,49.0,41.0,32.9,28.0,50,31,12,30.24,30.03,7,2,9,0.00
2013-3-3,80.0,63.3,50.0,42.0,38.0,34.0,63,42,21,30.04,29.86,4,1,7,0.00
2013-3-4,83.0,68.3,57.0,48.0,41.3,34.0,58,39,24,30.01,29.87,10,4,16,0.00
2013-3-5,85.0,67.2,51.0,48.0,43.2,41.0,71,45,23,30.06,29.91,6,2,10,0.00
2013-3-6,83.0,67.0,55.0,44.0,39.7,33.0,65,40,18,30.01,29.85,8,3,15,0.00
2013-3-7,80.0,65.6,50.0,44.0,40.4,38.0,69,42,23,29.94,29.83,11,4,17,0.00
2013-3-8,69.0,58.5,52.0,50.0,42.0,36.0,84,56,31,29.98,29.78,12,4,18,0.12
2013-3-9,72.0,60.3,47.0,43.0,38.6,36.0,70,47,29,30.09,29.97,12,4,17,0.01
2013-3-10,76.0,63.0,48.0,41.0,34.6,26.0,71,39,18,30.20,30.08,12,4,20,0.00
2013-3-11,55.0,51.2,49.0,35.0,34.0,33.0,54,52,46,30.14,30.10,3,1,3,0.00
2013-3-12,81.0,69.6,63.0,40.0,38.1,33.0,42,33,18,30.02,29.96,2,0,3,0.00
2013-3-13,92.0,76.6,56.0,45.0,37.7,31.0,51,29,12,30.07,29.96,6,2,9,0.00
2013-3-14,90.0,67.4,56.0,44.0,39.7,37.0,55,39,17,30.05,29.98,7,2,8,0.00
2013-3-26,90.0,90.0,90.0,38.0,38.0,38.0,16,16,16,29.83,29.74,0,0,0,0.00
2013-3-27,90.0,90.0,90.0,38.0,38.0,38.0,16,16,16,29.92,29.79,0,0,0,0.00
2013-3-28,90.0,85.2,69.0,46.0,39.7,35.0,38,21,15,30.00,29.89,6,1,10,0.00
2013-3-29,92.0,75.4,57.0,48.0,43.7,38.0,62,35,16,30.05,29.93,6,2,8,0.00
2013-3-30,92.0,77.0,66.0,49.0,40.0,-99.9,51,30,11,30.01,29.88,6,2,8,0.00
2013-3-31,92.0,75.0,58.0,48.0,43.4,39.0,63,35,21,29.98,29.86,11,4,15,0.00
2013-4-1,87.0,72.1,60.0,46.0,39.2,29.0,52,33,13,30.02,29.87,13,5,21,0.00
2013-4-2,89.0,73.3,61.0,50.0,43.9,31.0,60,38,13,29.96,29.83,10,4,13,0.00
2013-4-3,95.0,76.1,56.0,47.0,41.4,31.0,63,34,12,29.99,29.88,8,2,12,0.00
2013-4-4,96.0,80.6,64.0,49.0,44.3,38.0,50,30,16,29.97,29.84,8,2,14,0.00
2013-4-5,92.0,80.1,67.0,46.0,41.4,37.0,43,27,15,29.94,29.80,10,5,15,0.00
2013-4-6,92.0,78.3,65.0,52.0,44.9,41.0,48,32,18,29.92,29.76,8,3,14,0.00
2013-4-7,92.0,78.6,65.0,54.0,48.4,42.0,59,37,18,29.85,29.65,7,2,9,0.00
2013-4-8,82.0,70.6,63.0,59.0,44.4,36.0,66,41,22,29.65,29.46,21,8,36,0.00
2013-4-9,63.0,63.0,63.0,41.0,41.0,41.0,44,44,44,29.55,29.55,10,10,14,0.00
2013-4-10,80.0,71.6,63.0,41.0,30.2,17.0,44,25,10,30.04,29.55,18,9,27,0.00
2013-4-11,93.0,77.1,57.0,37.0,30.4,24.0,46,21,9,29.94,29.65,10,4,16,0.00
2013-4-12,93.0,77.2,62.0,45.0,35.0,27.0,37,24,10,29.77,29.67,7,2,9,0.00
2013-4-13,95.0,78.2,62.0,50.0,43.6,31.0,51,32,11,29.78,29.64,11,4,17,0.00
2013-4-14,94.0,77.3,66.0,56.0,50.4,44.0,64,42,20,29.69,29.56,10,5,17,0.00
2013-4-15,87.0,75.3,63.0,54.0,47.8,38.0,68,40,23,29.75,29.63,12,4,20,0.00
2013-4-16,80.0,67.8,56.0,40.0,35.5,30.0,48,32,17,29.85,29.71,12,7,21,0.00
2013-4-17,78.0,68.1,56.0,39.0,25.1,10.0,43,23,8,30.06,29.85,13,6,18,0.00
2013-4-18,77.0,68.3,58.0,27.0,19.5,10.0,29,16,8,30.19,30.06,15,7,20,0.00
2013-4-19,87.0,72.3,48.0,39.0,24.7,11.0,49,21,6,30.16,29.91,7,3,10,0.00
2013-4-20,96.0,78.4,53.0,43.0,35.4,25.0,54,25,9,29.93,29.81,8,2,11,0.00
2013-4-21,99.0,81.4,64.0,42.0,35.8,27.0,39,22,8,29.96,29.82,9,3,14,0.00
2013-4-22,99.0,79.8,59.0,49.0,37.8,25.0,44,24,12,29.87,29.68,10,3,14,0.00
2013-4-23,92.0,78.2,62.0,49.0,30.4,11.0,54,23,7,29.85,29.71,15,5,23,0.00
2013-4-24,93.0,79.5,64.0,59.0,38.1,11.0,76,27,10,29.85,29.70,12,5,16,0.00
2013-4-25,88.0,74.9,62.0,50.0,44.6,42.0,53,36,23,29.98,29.75,12,5,19,0.00
2013-4-26,95.0,76.7,58.0,51.0,48.4,44.0,69,41,18,30.08,29.95,7,2,9,0.00
2013-4-27,103.0,80.6,60.0,52.0,44.6,33.0,66,34,9,30.01,29.82,9,2,14,0.00
2013-4-28,107.0,86.9,64.0,52.0,36.7,20.0,43,20,5,29.84,29.66,10,3,16,0.00
2013-4-29,106.0,86.6,65.0,50.0,39.5,27.0,43,23,7,29.72,29.57,9,3,15,0.00
2013-4-30,103.0,85.9,63.0,47.0,36.8,27.0,44,21,8,29.68,29.58,11,5,22,0.00
2013-5-1,97.0,82.3,67.0,54.0,42.6,8.0,60,30,6,29.95,29.68,9,4,14,0.00
2013-5-2,91.0,81.0,68.0,30.0,14.5,3.0,24,9,5,30.14,29.95,17,9,29,0.00
2013-5-3,96.0,81.6,60.0,39.0,27.0,17.0,36,15,6,29.96,29.71,13,4,17,0.00
2013-5-4,102.0,83.7,63.0,54.0,37.6,25.0,51,22,7,29.71,29.57,11,3,16,0.00
2013-5-5,95.0,82.7,65.0,51.0,39.4,29.0,56,23,14,29.81,29.70,7,4,33,0.00
2013-5-6,93.0,93.0,93.0,43.0,43.0,43.0,18,18,18,29.72,29.72,7,7,33,0.00
2013-5-7,93.0,85.9,66.0,44.0,42.9,41.0,42,24,18,29.95,29.72,8,6,33,0.00
2013-5-8,87.0,73.0,61.0,48.0,42.5,38.0,52,36,19,30.02,29.89,8,3,11,0.00
2013-5-9,92.0,76.8,62.0,50.0,45.4,37.0,56,35,18,29.97,29.85,9,3,12,0.00
2013-5-10,99.0,78.8,62.0,56.0,45.7,-99.9,62,37,14,29.97,29.86,11,2,15,0.00
2013-5-11,101.0,84.7,66.0,51.0,43.1,-99.9,55,28,11,29.97,29.87,11,3,14,0.00
2013-5-12,107.0,89.0,69.0,47.0,41.7,33.0,40,22,9,30.01,29.82,8,2,10,0.00
2013-5-13,106.0,79.2,70.0,52.0,46.3,40.0,44,34,11,29.92,29.85,7,1,11,0.00
2013-5-14,107.0,98.1,79.0,54.0,47.7,41.0,38,20,11,29.85,29.71,9,4,14,0.00
2013-5-15,104.0,86.4,68.0,60.0,47.0,34.0,62,30,10,29.90,29.71,8,2,11,0.00
2013-5-16,86.0,86.0,86.0,43.0,43.0,43.0,22,22,22,29.78,29.64,0,0,0,0.00
2013-5-17,86.0,85.3,86.0,43.0,39.8,-99.9,22,22,22,29.83,29.74,0,0,0,0.00
2013-5-18,93.0,85.0,73.0,48.0,43.2,40.0,40,23,16,29.90,29.77,0,0,0,0.00
2013-5-19,98.0,82.3,68.0,55.0,48.5,41.0,61,34,16,29.85,29.71,0,0,0,0.00
2013-5-20,97.0,83.0,64.0,53.0,39.8,29.0,65,28,9,29.86,29.76,0,0,0,0.00
2013-5-21,103.0,86.0,61.0,47.0,39.9,27.0,54,24,7,29.83,29.64,0,0,0,0.00
2013-5-22,104.0,87.0,68.0,50.0,39.9,20.0,47,22,8,29.69,29.54,0,0,0,0.00
2013-5-23,97.0,83.7,67.0,35.0,25.5,16.0,29,13,6,29.76,29.65,0,0,0,0.00
2013-5-24,98.0,80.6,61.0,56.0,40.5,31.0,46,26,11,29.85,29.73,0,0,0,0.00
2013-5-25,98.0,82.6,63.0,60.0,44.5,30.0,79,34,10,29.87,29.73,0,0,0,0.00
2013-5-26,96.0,81.0,63.0,46.0,36.4,27.0,48,23,9,29.90,29.77,0,0,0,0.00
2013-5-27,97.0,83.3,71.0,48.0,42.5,38.0,37,25,13,29.83,29.65,0,0,0,0.00
2013-5-28,99.0,83.6,65.0,51.0,47.8,45.0,50,31,17,29.69,29.52,0,0,0,0.00
2013-5-29,90.0,75.6,67.0,57.0,53.3,50.0,62,47,32,29.70,29.61,0,0,0,0.00
2013-5-30,96.0,89.2,77.0,62.0,58.3,55.0,58,36,29,29.76,29.67,0,0,0,0.00
2013-5-31,101.0,86.4,72.0,63.0,57.9,54.0,64,41,22,29.82,29.69,0,0,0,0.00
2013-6-1,109.0,90.2,70.0,61.0,53.8,42.0,67,35,11,29.75,29.60,0,0,0,0.00
2013-6-2,107.0,91.7,75.0,56.0,47.4,37.0,50,25,10,29.67,29.54,0,0,0,0.00
2013-6-3,101.0,87.9,74.0,56.0,49.1,40.0,46,28,13,29.72,29.58,0,0,0,0.00
2013-6-4,103.0,87.7,74.0,54.0,49.4,45.0,46,29,15,29.77,29.66,10,2,16,0.00
2013-6-5,107.0,89.6,69.0,51.0,45.0,37.0,49,25,10,29.81,29.66,8,2,17,0.00
2013-6-6,111.0,91.6,71.0,57.0,46.5,35.0,49,25,8,29.74,29.59,8,3,15,0.00
2013-6-7,113.0,92.7,72.0,56.0,46.6,39.0,53,24,9,29.69,29.55,9,3,12,0.00
2013-6-8,102.0,89.1,74.0,65.0,54.6,37.0,55,33,19,29.72,29.60,12,5,20,0.00
2013-6-9,102.0,88.2,71.0,63.0,51.7,35.0,58,32,14,29.80,29.68,12,4,17,0.00
2013-6-10,107.0,90.1,69.0,54.0,46.1,36.0,55,26,10,29.77,29.65,13,4,18,0.00
2013-6-11,109.0,91.9,73.0,51.0,44.0,30.0,42,22,8,29.81,29.69,7,2,8,0.00
2013-6-12,87.0,81.2,77.0,53.0,50.9,48.0,40,35,28,29.74,29.72,2,0,3,0.00
2013-6-15,85.0,83.8,82.0,34.0,34.0,32.0,18,17,16,29.77,29.77,3,2,6,0.00
2013-6-16,107.0,90.0,69.0,52.0,34.1,20.0,39,17,5,29.85,29.72,8,2,11,0.00
2013-6-17,109.0,90.4,69.0,56.0,46.6,35.0,57,28,8,29.83,29.71,6,2,9,0.00
2013-6-19,106.0,101.6,88.0,54.0,32.3,24.0,32,10,7,29.69,29.58,10,4,13,0.00
2013-6-20,104.0,85.8,69.0,63.0,51.0,37.0,68,36,11,29.73,29.64,5,1,7,0.00
2013-6-21,105.0,102.0,99.0,49.0,46.5,43.0,19,16,14,29.71,29.63,6,4,10,0.00
2013-6-22,106.0,96.8,76.0,62.0,45.1,34.0,51,21,9,29.76,29.61,6,2,8,0.00
2013-6-23,106.0,88.6,71.0,57.0,50.1,41.0,46,29,12,29.70,29.56,10,4,15,0.00
2013-6-24,103.0,87.1,70.0,63.0,50.0,38.0,57,31,11,29.76,29.64,10,2,17,0.00
2013-6-25,103.0,88.6,71.0,62.0,54.9,50.0,57,34,20,29.84,29.72,7,2,11,0.00
2013-6-26,105.0,92.3,76.0,62.0,52.5,43.0,51,28,13,29.90,29.78,10,4,14,0.00
2013-6-27,111.0,91.0,72.0,65.0,58.2,49.0,57,36,18,29.95,29.79,10,2,14,0.00
2013-6-28,118.0,99.6,78.0,66.0,54.4,42.0,61,29,9,29.83,29.63,8,3,13,0.00
2013-6-29,113.0,99.3,88.0,65.0,57.8,49.0,43,26,13,29.70,29.60,12,4,20,0.00
2013-6-30,114.0,96.3,84.0,69.0,63.7,59.0,51,36,19,29.74,29.59,12,4,19,0.00
2013-7-1,113.0,98.0,87.0,69.0,64.5,58.0,53,36,19,29.77,29.64,9,4,18,0.00
2013-7-2,112.0,97.6,85.0,71.0,63.6,57.0,64,36,18,29.92,29.67,20,6,27,0.00
2013-7-3,113.0,97.3,81.0,65.0,59.7,51.0,54,31,15,29.75,29.57,8,4,13,0.00
2013-7-4,107.0,94.7,85.0,70.0,65.1,59.0,59,39,24,29.71,29.57,14,7,23,0.00
2013-7-5,103.0,92.2,84.0,71.0,62.4,52.0,61,40,19,29.72,29.60,10,4,17,0.00
2013-7-6,108.0,92.9,80.0,62.0,55.9,50.0,47,31,16,29.70,29.55,7,2,12,0.00
2013-7-7,115.0,97.3,76.0,63.0,56.5,48.0,62,30,12,29.68,29.55,8,2,11,0.00
2013-7-8,112.0,94.0,83.0,70.0,61.5,-99.9,51,36,19,29.80,29.66,9,3,13,0.00
2013-7-9,105.0,91.1,85.0,74.0,70.5,67.0,66,52,31,29.95,29.79,12,6,20,0.00
2013-7-10,85.0,78.2,83.0,75.0,61.6,-99.9,74,66,68,29.89,29.83,15,8,28,0.00
2013-7-14,112.0,105.6,92.0,67.0,65.3,63.0,41,28,22,29.75,29.64,10,5,14,0.00
2013-7-15,114.0,97.9,86.0,66.0,63.2,57.0,51,34,17,29.72,29.56,9,4,18,0.00
2013-7-16,109.0,94.7,82.0,67.0,56.2,43.0,45,29,11,29.83,29.67,6,3,14,0.00
2013-7-17,109.0,96.2,81.0,67.0,58.2,34.0,54,31,10,29.89,29.75,6,2,9,0.00
2013-7-18,113.0,95.5,83.0,67.0,57.7,53.0,43,30,15,29.82,29.65,8,2,12,0.00
2013-7-21,88.0,84.8,81.0,77.0,74.8,73.0,83,72,65,29.83,29.78,12,1,20,0.40
2013-7-22,94.0,83.0,78.0,77.0,73.4,65.0,91,76,42,29.90,29.82,7,2,10,0.01
2013-7-23,83.0,83.0,83.0,73.0,73.0,73.0,71,71,71,29.83,29.83,0,0,0,0.00
2013-7-24,83.0,83.0,83.0,73.0,73.0,73.0,71,71,71,29.83,29.83,0,0,0,0.00
2013-7-25,83.0,83.0,83.0,73.0,73.0,73.0,71,71,71,29.83,29.83,0,0,0,0.00
2013-7-26,83.0,83.0,83.0,73.0,73.0,73.0,71,71,71,29.83,29.83,0,0,0,0.00
2013-7-27,83.0,83.0,83.0,73.0,73.0,73.0,71,71,71,29.83,29.83,0,0,0,0.00
2013-7-28,110.0,98.0,88.0,52.0,45.1,40.0,23,17,14,29.72,29.61,7,4,12,0.00
2013-7-29,105.0,89.8,76.0,63.0,54.3,46.0,41,31,23,29.85,29.72,13,3,17,0.00
2013-7-30,105.0,94.5,84.0,65.0,59.1,55.0,46,32,20,29.95,29.83,9,4,16,0.00
2013-7-31,109.0,95.5,79.0,64.0,56.8,46.0,54,30,16,29.92,29.75,10,2,13,0.00
2013-8-1,108.0,91.9,79.0,59.0,51.8,46.0,47,27,13,29.81,29.67,17,2,26,0.00
2013-8-2,105.0,90.6,79.0,69.0,57.9,46.0,58,37,15,29.80,29.69,9,4,15,0.00
2013-8-3,108.0,92.8,74.0,61.0,49.1,26.0,58,27,8,29.85,29.70,11,3,18,0.00
2013-8-4,109.0,92.9,75.0,60.0,51.3,36.0,55,29,9,29.85,29.72,8,2,14,0.00
2013-8-5,101.0,89.4,75.0,76.0,58.1,47.0,67,36,19,29.87,29.76,11,4,16,0.00
2013-8-6,103.0,90.7,82.0,74.0,65.4,59.0,69,45,25,29.90,29.78,9,4,14,0.00
2013-8-7,108.0,92.5,77.0,70.0,49.0,23.0,65,31,5,29.89,29.76,6,1,11,0.00
2013-8-8,109.0,90.9,76.0,55.0,42.9,32.0,44,22,8,29.82,29.68,8,2,13,0.00
2013-8-12,107.0,98.9,84.0,61.0,49.3,39.0,31,20,12,29.82,29.70,6,2,10,0.00
2013-8-13,105.0,88.1,70.0,60.0,50.1,-99.9,50,30,18,29.87,29.72,10,3,15,0.00
2013-8-14,91.0,81.3,76.0,77.0,65.5,57.0,85,60,44,29.84,29.77,5,1,9,0.00
2013-8-15,110.0,84.5,96.0,65.0,25.0,-99.9,36,22,19,29.83,29.70,6,3,9,0.00
2013-8-16,112.0,95.1,83.0,70.0,58.8,-99.9,60,35,19,29.82,29.69,7,2,11,0.00
2013-8-17,113.0,96.0,82.0,69.0,58.8,-99.9,55,33,17,29.82,29.63,7,2,11,0.00
2013-8-18,112.0,100.5,91.0,68.0,61.6,53.0,44,29,20,29.79,29.65,13,4,22,0.00
2013-8-19,111.0,90.7,88.0,66.0,45.3,-99.9,44,29,18,29.82,29.68,7,2,10,0.00
2013-8-20,112.0,96.2,82.0,68.0,55.8,-99.9,58,30,16,29.78,29.65,5,2,8,0.00
2013-8-21,112.0,103.0,93.0,71.0,61.8,56.0,49,29,18,29.77,29.65,8,4,14,0.00
2013-8-22,106.0,95.3,85.0,78.0,72.8,66.0,67,50,30,29.83,29.68,16,5,23,0.00
2013-8-24,94.0,79.0,77.0,74.0,63.8,-99.9,85,68,39,29.83,29.72,11,3,19,0.03
2013-8-25,88.0,82.5,78.0,76.0,72.5,69.0,83,72,59,29.92,29.82,14,2,19,0.07
2013-8-26,97.0,84.3,75.0,75.0,71.6,68.0,90,68,41,29.92,29.75,11,5,16,0.12
2013-8-27,102.0,86.5,80.0,73.0,70.6,67.0,73,61,35,29.79,29.74,5,1,8,0.03
2013-8-28,109.0,105.7,96.0,73.0,69.2,67.0,48,32,27,29.76,29.67,9,3,15,0.00
2013-8-29,95.0,86.8,81.0,77.0,75.4,73.0,85,70,51,29.97,29.89,11,3,19,0.03
2013-8-30,99.0,88.2,82.0,77.0,74.5,70.0,85,66,43,29.97,29.85,5,1,8,0.01
2013-8-31,104.0,91.5,83.0,76.0,69.2,-99.9,76,52,33,29.89,29.73,18,2,30,0.00
2013-9-1,108.0,95.5,82.0,71.0,66.7,62.0,66,42,23,29.82,29.68,9,2,13,0.00
2013-9-2,107.0,94.2,81.0,72.0,68.5,65.0,68,45,27,29.81,29.67,10,3,22,0.00
2013-9-3,109.0,96.4,82.0,70.0,66.1,61.0,64,40,23,29.82,29.67,5,2,8,0.00
2013-9-4,103.0,91.2,79.0,75.0,69.6,62.0,80,52,27,29.86,29.75,11,4,17,0.29
2013-9-5,109.0,92.8,78.0,75.0,67.8,60.0,84,50,21,29.83,29.69,5,1,10,0.01
2013-9-6,109.0,93.4,82.0,71.0,65.4,59.0,61,42,24,29.84,29.67,13,3,17,0.00
2013-9-7,96.0,85.1,80.0,71.0,65.0,-99.9,71,55,35,29.88,29.75,8,2,14,0.00
2013-9-8,103.0,89.7,77.0,72.0,68.1,65.0,82,53,30,29.79,29.64,8,2,11,0.00
2013-9-10,94.0,89.0,83.0,75.0,69.2,66.0,77,53,40,29.82,29.72,5,2,9,0.00
2013-9-11,98.0,88.3,76.0,75.0,68.8,59.0,84,56,31,29.88,29.76,6,2,9,0.00
2013-9-12,104.0,92.0,78.0,69.0,62.2,55.0,74,41,21,29.82,29.67,7,2,9,0.00
2013-9-13,106.0,91.0,73.0,65.0,57.9,51.0,74,37,17,29.70,29.53,11,2,16,0.00
2013-9-14,107.0,92.3,77.0,62.0,54.2,-99.9,58,32,18,29.62,29.51,7,1,10,0.00
2013-9-15,109.0,93.6,79.0,64.0,57.1,50.0,59,34,15,29.65,29.58,4,1,7,0.00
2013-9-16,111.0,95.3,79.0,62.0,55.3,46.0,55,30,12,29.70,29.58,4,1,6,0.00
2013-9-17,110.0,92.8,76.0,62.0,51.1,40.0,55,28,11,29.66,29.51,8,1,16,0.00
2013-9-18,86.0,77.7,71.0,52.0,47.0,41.0,50,35,21,29.64,29.57,4,1,7,0.00
2013-9-19,101.0,85.2,67.0,66.0,55.6,48.0,68,40,20,29.72,29.61,3,1,8,0.00
2013-9-20,101.0,87.7,71.0,67.0,59.7,51.0,79,44,20,29.74,29.62,6,2,12,0.00
2013-9-21,102.0,86.3,74.0,71.0,56.0,-99.9,78,42,18,29.74,29.57,11,4,17,0.00
2013-9-22,91.0,78.6,70.0,53.0,44.3,33.0,47,32,14,29.74,29.62,12,4,18,0.00
2013-9-23,96.0,80.9,62.0,47.0,40.5,34.0,49,27,12,29.83,29.73,9,2,13,0.00
2013-9-24,100.0,89.0,66.0,58.0,47.5,42.0,54,26,15,29.88,29.75,6,2,7,0.00
2013-9-26,87.0,79.9,70.0,47.0,41.0,36.0,43,26,17,29.75,29.63,12,6,18,0.00
2013-9-27,85.0,74.5,60.0,49.0,34.7,27.0,59,27,12,29.92,29.75,18,6,24,0.00
2013-9-28,92.0,77.0,58.0,40.0,30.8,-99.9,43,21,10,30.00,29.90,9,2,13,0.00
2013-9-29,97.0,84.1,59.0,45.0,38.8,29.0,53,23,10,30.01,29.87,7,2,8,0.00
2013-9-30,89.0,70.9,59.0,52.0,46.4,44.0,61,44,26,29.91,29.87,4,1,6,0.00
2013-10-18,88.0,78.5,60.0,37.0,30.1,25.0,40,19,11,29.97,29.87,9,3,13,0.00
2013-10-19,90.0,71.8,52.0,39.0,30.3,-99.9,52,27,10,29.99,29.86,7,2,10,0.00
2013-10-20,92.0,80.0,51.0,40.0,34.3,28.0,64,25,10,29.89,29.77,5,2,8,0.00
2013-10-21,89.0,71.4,55.0,46.0,39.7,32.0,62,37,13,29.93,29.83,3,1,5,0.00
2013-10-22,91.0,74.7,56.0,46.0,36.0,26.0,63,30,10,29.95,29.81,7,2,11,0.00
2013-10-23,91.0,78.9,53.0,43.0,35.9,30.0,65,25,12,29.84,29.75,6,2,13,0.00
2013-10-24,86.0,66.5,55.0,60.0,45.2,39.0,65,48,32,29.88,29.79,3,0,4,0.00
2013-10-25,86.0,86.0,86.0,60.0,60.0,60.0,41,41,41,29.85,29.85,0,0,1,0.00
2013-10-26,-200.0,0.0,200.0,-99.9,-99.9,-99.9,0,0,100,29.85,29.85,0,0,1,0.00
2013-10-28,84.0,73.0,64.0,53.0,45.6,-99.9,51,41,25,29.84,29.70,10,5,18,0.00
2013-10-29,74.0,65.3,54.0,48.0,43.9,40.0,68,47,35,29.91,29.82,9,3,14,0.00
2013-10-30,75.0,62.7,51.0,46.0,39.4,34.0,73,45,24,30.01,29.91,8,2,11,0.00
2013-11-3,83.0,66.4,51.0,42.0,37.8,31.0,66,40,15,29.82,29.69,4,1,8,0.00
2013-11-4,80.0,64.4,49.0,59.0,41.1,36.0,73,46,22,29.80,29.67,8,2,12,0.00
2013-11-5,74.0,65.5,57.0,41.0,25.7,18.0,50,23,12,30.14,29.81,16,6,21,0.00
2013-11-6,76.0,64.8,55.0,27.0,20.8,17.0,32,19,12,30.25,30.14,11,5,15,0.00
2013-11-7,82.0,68.2,57.0,31.0,22.2,17.0,36,19,10,30.14,29.98,8,4,12,0.00
2013-11-8,82.0,69.3,53.0,38.0,29.9,23.0,48,25,14,30.01,29.88,4,1,7,0.00
2013-11-9,65.0,52.7,48.0,39.0,36.0,34.0,62,53,35,30.04,29.94,2,1,3,0.00
2013-11-11,64.0,64.0,64.0,40.0,40.0,40.0,41,41,41,30.01,30.01,0,0,0,0.00
2013-11-12,89.0,78.4,60.0,41.0,31.8,28.0,46,19,13,30.10,29.98,9,5,13,0.00
2013-11-13,88.0,80.4,70.0,48.0,40.1,27.0,45,25,16,30.01,29.88,9,4,14,0.00
2013-11-14,85.0,74.0,57.0,45.0,40.4,33.0,56,32,16,29.94,29.73,7,2,9,0.00
2013-11-15,86.0,71.5,59.0,63.0,50.2,40.0,74,49,20,29.72,29.49,9,5,17,0.00
2013-11-16,75.0,61.4,50.0,47.0,41.3,-99.9,78,52,32,29.85,29.65,7,2,11,0.00
2013-11-17,74.0,61.6,50.0,52.0,46.9,42.0,76,60,43,30.02,29.86,5,1,8,0.00
2013-11-18,78.0,64.1,53.0,51.0,48.6,47.0,81,60,35,30.08,29.94,5,1,8,0.00
2013-11-28,71.0,57.9,47.0,46.0,41.3,37.0,81,57,31,30.04,29.91,8,2,12,0.00
2013-11-29,71.0,57.5,46.0,47.0,44.0,40.0,89,64,33,30.16,30.04,4,1,6,0.00
2013-11-30,73.0,58.6,47.0,45.0,40.8,-99.9,85,57,32,30.18,30.06,9,3,14,0.00
2013-12-1,73.0,60.0,49.0,44.0,41.3,39.0,80,53,29,30.21,30.10,12,3,15,0.00
2013-12-2,74.0,60.1,46.0,43.0,40.1,36.0,81,52,30,30.12,29.99,6,3,9,0.00
2013-12-3,75.0,68.1,56.0,59.0,50.9,47.0,85,56,40,29.80,29.62,7,3,11,0.00
2013-12-4,63.0,58.4,47.0,48.0,38.1,24.0,70,49,28,29.96,29.67,15,4,20,0.00
2013-12-5,48.0,46.8,46.0,22.0,19.6,17.0,37,34,29,29.96,29.95,6,3,9,0.00
2013-12-6,60.0,48.3,39.0,34.0,27.6,22.0,72,46,28,30.20,30.09,6,2,11,0.00
2013-12-7,63.0,50.4,37.0,41.0,33.0,-99.9,81,56,36,30.10,29.94,10,3,15,0.00
2013-12-8,57.0,51.9,45.0,39.0,25.3,15.0,63,37,23,30.17,30.00,12,5,15,0.00
2013-12-9,53.0,46.6,36.0,15.0,10.8,8.0,41,24,17,30.40,30.16,15,8,22,0.00
2013-12-10,57.0,48.1,42.0,14.0,10.1,8.0,25,21,16,30.37,30.14,12,6,18,0.00